EW8705 Weather Reports


Display with metric or nautical units.
time (UTC)temp
F
wind
direction
speed
MPH
gust
MPH
rain 1hr
in
rain 24hr
in
rain mn
in
humidity
%
barometer
mb
20201031050033 68 169 2.0 3.0 0.00 0.00 0.00 82 1012.9
20201031044527 68 150 1.0 3.0 0.00 0.00 0.00 82 1012.6
20201031043033 67 217 0.0 2.0 0.00 0.00 0.00 83 1012.3
20201031041524 67 141 0.0 3.0 0.00 0.00 0.00 84 1012.1
20201031040045 67 186 0.0 3.0 0.00 0.00 0.00 84 1012.2
20201031034519 67 178 0.0 3.0 0.00 0.00 0.00 85 1012.4
20201031033052 67 148 2.0 4.0 0.00 0.00 0.00 86 1012.5
20201031031528 67 146 3.0 4.0 0.00 0.00 0.00 85 1012.2
20201031030028 68 155 1.0 2.0 0.00 0.00 0.00 84 1012.3
20201031024512 68 186 1.0 4.0 0.00 0.00 0.00 84 1012.2
20201031023149 67 150 3.0 4.0 0.00 0.00 0.00 85 1012.3
20201031021658 67 159 2.0 5.0 0.00 0.00 0.00 86 1012.2
20201031020136 67 150 2.0 4.0 0.00 0.00 0.00 86 1012.1
20201031014640 67 150 0.0 2.0 0.00 0.00 0.00 87 1012.2
20201031013119 67 159 1.0 3.0 0.00 0.00 0.00 87 1012.2
20201031011639 67 144 1.0 3.0 0.00 0.00 0.00 87 1012.3
20201031010128 67 139 2.0 4.0 0.00 0.00 0.00 87 1012.5
20201031004716 67 189 1.0 3.0 0.00 0.00 0.00 87 1012.7
20201031003143 67 208 1.0 3.0 0.00 0.00 0.00 88 1012.5
20201031001651 67 148 1.0 3.0 0.00 0.00 0.00 87 1012.4
20201031000120 67 148 1.0 3.0 0.00 0.00 0.00 87 1012.5
20201030234607 66 184 0.0 3.0 0.00 0.00 0.00 87 1012.6
20201030233216 67 150 1.0 3.0 0.00 0.00 0.00 87 1012.6
20201030231724 66 226 0.0 4.0 0.00 0.00 0.00 87 1012.7
20201030230109 66 146 2.0 3.0 0.00 0.00 0.00 87 1012.6
20201030224619 66 152 2.0 3.0 0.00 0.00 0.00 87 1012.4
20201030223149 66 161 0.0 2.0 0.00 0.00 0.00 88 1012.5
20201030221637 66 193 1.0 3.0 0.00 0.00 0.00 88 1012.4
20201030220055 66 155 2.0 4.0 0.00 0.00 0.00 88 1012.4
20201030214558 66 137 0.0 3.0 0.00 0.00 0.00 88 1012.6
20201030213116 66 134 1.0 3.0 0.00 0.00 0.00 87 1012.6
20201030211639 66 151 1.0 3.0 0.00 0.00 0.00 87 1012.7
20201030210100 66 143 2.0 3.0 0.00 0.00 0.00 87 1012.8
20201030204548 67 155 2.0 3.0 0.00 0.00 0.00 86 1012.9
20201030203101 67 159 1.0 3.0 0.00 0.00 0.00 86 1012.9
20201030201552 67 154 1.0 2.0 0.00 0.00 0.00 86 1013.1
20201030200107 67 143 0.0 2.0 0.00 0.00 0.00 85 1013.1
20201030194609 68 158 1.0 3.0 0.00 0.00 0.00 85 1013.2
20201030193120 68 157 2.0 3.0 0.00 0.00 0.00 84 1013.2
20201030191635 68 234 0.0 3.0 0.00 0.00 0.00 86 1013.3
20201030190041 68 148 0.0 2.0 0.00 0.00 0.00 85 1013.3
20201030184614 68 174 0.0 3.0 0.00 0.00 0.00 84 1013.2
20201030183204 69 155 1.0 2.0 0.00 0.00 0.00 82 1013.2
20201030181609 70 143 0.0 1.0 0.00 0.00 0.00 82 1013.3
20201030180038 70 167 1.0 2.0 0.00 0.00 0.00 82 1013.2
20201030174621 70 176 0.0 3.0 0.00 0.00 0.00 82 1013.1
20201030173054 71 169 0.0 1.0 0.00 0.00 0.00 81 1013.3
20201030171556 71 169 1.0 2.0 0.00 0.00 0.00 81 1013.4
20201030170127 72 146 0.0 1.0 0.00 0.00 0.00 80 1013.5
20201030164614 72 141 1.0 3.0 0.00 0.00 0.00 80 1013.6
20201030163037 72 115 1.0 4.0 0.00 0.00 0.00 78 1013.7
20201030161614 73 75 1.0 2.0 0.00 0.00 0.00 78 1013.7
20201030160042 73 49 0.0 1.0 0.00 0.00 0.00 78 1013.6
20201030154527 73 18 0.0 2.0 0.00 0.00 0.00 79 1013.5
20201030153030 74 4 0.0 2.0 0.00 0.00 0.00 79 1013.5
20201030151534 74 341 0.0 0.0 0.00 0.00 0.00 77 1013.4
20201030150120 75 341 0.0 1.0 0.00 0.00 0.00 76 1013.3
20201030144531 75 18 1.0 3.0 0.00 0.00 0.00 75 1013.2
20201030143042 75 320 1.0 5.0 0.00 0.00 0.00 73 1013.2
20201030141601 76 358 3.0 6.0 0.00 0.00 0.00 70 1013.1
20201030140043 76 328 1.0 6.0 0.00 0.00 0.00 70 1013.0
20201030134544 76 39 4.0 8.0 0.00 0.00 0.00 67 1013.0
20201030133025 77 40 2.0 7.0 0.00 0.00 0.00 70 1013.2
20201030131534 77 354 4.0 8.0 0.00 0.00 0.00 70 1013.3
20201030130025 77 340 3.0 6.0 0.00 0.00 0.00 69 1013.4
20201030124616 77 23 3.0 7.0 0.00 0.00 0.00 67 1013.4
20201030123032 77 318 5.0 9.0 0.00 0.00 0.00 68 1013.4
20201030121535 78 305 3.0 9.0 0.00 0.00 0.00 65 1013.3
20201030120026 78 358 4.0 9.0 0.00 0.00 0.00 67 1013.2
20201030114522 79 308 4.0 7.0 0.00 0.00 0.00 64 1013.3
20201030113024 79 330 2.0 6.0 0.00 0.00 0.00 64 1013.4
20201030111757 78 325 3.0 7.0 0.00 0.00 0.00 67 1013.5
20201030110208 78 348 3.0 8.0 0.00 0.00 0.00 68 1013.6
20201030104711 77 337 3.0 8.0 0.00 0.00 0.00 72 1013.7
20201030103208 77 352 4.0 8.0 0.00 0.00 0.00 70 1013.9
20201030101732 77 27 4.0 8.0 0.00 0.00 0.00 70 1014.0
20201030100242 77 314 3.0 9.0 0.00 0.00 0.00 70 1014.1
20201030094628 77 331 4.0 9.0 0.00 0.00 0.00 70 1014.2
20201030093142 77 50 3.0 7.0 0.00 0.00 0.00 68 1014.4
20201030091716 77 315 3.0 7.0 0.00 0.00 0.00 68 1014.5
20201030090236 78 331 2.0 5.0 0.00 0.00 0.00 61 1014.7
20201030084723 78 304 3.0 7.0 0.00 0.00 0.00 60 1014.8
20201030083123 77 328 2.0 8.0 0.00 0.00 0.00 63 1014.9
20201030081630 77 23 2.0 7.0 0.00 0.00 0.00 66 1014.9
20201030080126 77 322 5.0 9.0 0.00 0.00 0.00 67 1015.0
20201030074658 76 4 3.0 8.0 0.00 0.00 0.00 71 1015.0
20201030073140 76 302 2.0 8.0 0.00 0.00 0.00 72 1014.9
20201030071628 76 309 2.0 8.0 0.00 0.00 0.00 71 1015.0
20201030070126 76 46 2.0 5.0 0.00 0.00 0.00 72 1014.9
20201030064730 75 25 2.0 6.0 0.00 0.00 0.00 73 1015.0
20201030063107 75 356 0.0 5.0 0.00 0.00 0.00 73 1015.1
20201030061646 75 347 2.0 4.0 0.00 0.00 0.00 72 1014.9
20201030060153 73 147 0.0 1.0 0.00 0.00 0.00 79 1015.0
20201030054549 71 150 1.0 2.0 0.00 0.00 0.00 82 1014.8
20201030053101 69 154 0.0 2.0 0.00 0.00 0.00 85 1014.7
20201030051653 67 174 2.0 4.0 0.00 0.00 0.00 88 1014.5